Wind_Speed
29 35 37 38 41 41 38 40 45 40 35 34 39 28 26 25 26 23 21 21 21 21 21 18 16 16 13 12 12 12 12 10 8 8 6 5 7 8 8 10 9 11 15
29 30 36 37 38 43 43 39 41 39 34 36 36 28 27 27 26 24 20 23 20 19 19 18 18 16 13 13 12 13 12 12 8 7 7 7 7 6 8 11 8 11 14
31 27 32 36 37 43 44 39 38 32 35 36 33 28 29 28 27 24 21 22 20 18 17 17 18 15 13 13 13 12 11 12 12 8 6 8 9 9 8 12 11 12 14
31 28 34 39 39 43 44 37 35 34 35 34 32 31 29 29 27 22 23 22 19 17 17 17 15 12 13 12 12 11 12 11 12 10 9 9 12 13 12 10 12 13 14
31 29 33 42 41 43 42 36 32 35 34 34 34 31 30 29 25 26 26 22 19 17 18 17 14 12 13 13 12 11 11 11 10 11 11 13 14 16 18 15 11 12 14
31 31 27 34 37 43 37 34 36 37 37 36 33 32 31 28 25 27 25 21 18 17 18 16 13 11 12 13 13 13 11 11 12 14 16 16 15 17 17 21 16 17 16
32 31 28 34 35 36 36 39 39 39 38 35 33 30 28 27 30 29 21 18 20 18 18 14 12 11 11 12 12 12 12 13 15 17 16 18 15 16 18 18 18 17 17
33 29 33 36 34 38 41 41 40 39 35 33 31 28 29 30 31 24 20 19 20 20 17 14 10 9 11 12 12 11 11 12 11 13 15 13 11 12 15 15 18 18 17
24 31 36 34 38 43 42 40 37 35 33 28 29 32 31 32 28 26 23 21 19 19 17 13 10 10 12 13 12 12 13 11 8 10 15 16 12 12 14 18 19 18 19
19 25 30 33 37 38 40 38 34 31 30 30 33 34 33 30 30 26 24 21 19 17 16 13 11 11 11 11 11 10 11 9 8 7 11 14 15 13 15 14 14 16 17
17 16 23 27 32 34 34 32 34 31 33 36 38 35 30 29 31 26 21 18 16 16 14 13 11 10 9 10 10 11 11 10 8 9 9 11 15 16 18 17 15 15 13
10 11 16 22 25 27 32 35 32 34 39 40 37 33 30 29 26 24 21 16 14 14 13 12 11 9 8 7 7 10 12 11 11 10 9 10 14 18 18 16 14 17 16
6 11 15 17 21 29 34 33 34 42 40 37 35 33 30 27 25 22 20 17 15 13 13 12 11 10 11 13 11 10 10 11 10 9 10 10 12 15 17 16 16 15 14
3 12 16 20 27 33 34 36 42 40 38 35 34 32 29 26 23 22 20 17 14 14 14 13 12 14 14 13 12 10 8 8 8 8 9 13 15 16 17 17 17 16 14
3 12 21 29 35 33 36 38 36 34 33 34 31 29 27 24 22 20 18 17 16 13 14 14 16 16 17 15 13 10 9 4 6 9 11 12 15 16 17 17 18 15 15
7 17 28 32 30 33 34 33 30 27 24 23 21 19 20 18 18 17 16 15 13 13 13 13 17 18 17 15 13 11 9 5 4 9 11 12 12 13 15 17 17 19 12
16 28 32 35 32 29 29 31 32 29 24 20 18 16 16 19 15 16 17 15 14 13 13 12 16 18 17 14 12 12 9 5 3 7 9 10 10 9 14 16 16 17 16
38 39 28 32 34 31 30 30 29 27 25 24 23 21 18 14 11 17 18 15 14 14 13 12 15 18 17 15 14 12 9 5 4 8 9 9 10 12 14 14 15 15 13
36 37 41 38 34 31 29 29 28 27 26 26 26 23 19 14 16 17 15 13 12 12 12 12 14 19 18 14 15 13 9 7 7 7 9 10 10 10 11 13 13 15 15
35 38 40 37 34 28 26 24 23 27 26 26 25 23 22 17 17 18 17 12 11 11 11 11 12 20 16 17 15 14 12 11 7 8 7 8 10 12 12 12 11 11 15
30 28 30 29 25 23 22 22 24 26 24 24 22 21 17 14 14 16 17 12 11 10 10 12 11 15 20 18 16 15 11 10 8 8 7 6 7 9 10 11 10 9 13
29 29 26 24 23 22 22 25 25 24 22 23 24 21 17 14 14 14 14 12 10 11 13 14 12 14 14 15 18 13 11 10 8 6 6 7 8 9 11 10 12 11 13
31 27 23 23 22 24 25 24 23 24 24 24 22 19 17 19 20 17 14 13 11 12 13 14 14 14 13 13 15 15 14 10 9 7 6 5 8 10 10 11 12 12 10
27 25 23 24 24 25 25 25 24 24 26 24 21 21 22 22 19 15 13 12 12 11 13 12 12 12 13 11 12 14 13 11 10 9 7 6 6 6 7 8 9 9 9
25 24 24 24 23 24 25 26 26 27 25 22 23 25 25 22 18 16 16 13 13 12 14 13 12 11 11 11 11 10 8 7 7 7 7 8 7 9 10 10 10 10 11
23 24 23 21 20 25 27 28 28 26 25 25 25 26 24 20 18 16 16 15 15 13 15 15 13 12 12 11 11 7 11 6 1 4 3 4 6 7 6 6 7 7 7
Wind_Direction
278 266 260 253 245 241 242 241 239 244 245 235 233 227 232 224 218 218 220 215 208 218 214 219 230 241 235 232 227 225 229 223 227 245 259 254 224 222 216 224 220 214 203
287 272 260 251 250 242 240 243 235 237 241 228 220 222 224 217 215 216 217 204 210 214 214 223 237 231 226 226 222 221 220 228 223 218 255 235 218 198 199 210 207 196 193
286 275 262 253 249 242 238 242 234 228 222 214 214 221 217 213 212 211 204 203 206 216 217 234 230 225 224 222 220 219 220 232 228 220 231 228 210 201 194 200 197 193 189
283 276 261 249 243 236 235 238 224 216 204 205 215 217 210 208 207 201 194 200 203 211 226 219 218 221 218 215 212 216 224 226 229 221 220 230 211 201 190 195 194 192 190
282 277 260 241 235 231 231 224 210 198 199 210 213 205 203 203 202 191 193 199 203 210 208 208 212 214 215 211 210 216 224 225 222 215 224 226 215 204 200 197 194 187 184
278 266 265 237 224 220 220 205 192 196 203 207 203 200 198 200 198 190 198 194 193 199 203 205 209 215 216 216 216 220 226 239 243 240 232 222 220 213 201 204 203 188 171
286 242 246 218 205 205 200 192 191 198 199 196 194 196 197 196 187 190 185 189 194 199 198 199 209 221 221 219 216 221 251 254 247 246 241 226 225 218 204 200 202 184 187
272 254 210 197 190 188 189 188 193 195 190 191 193 191 190 187 183 176 177 185 190 190 197 205 215 227 218 214 219 241 255 248 249 241 218 203 208 220 212 205 193 196 189
248 189 183 178 179 184 184 186 185 183 187 189 183 182 182 172 173 171 172 176 183 192 198 209 225 221 218 220 236 255 248 228 246 227 203 190 201 203 198 203 199 190 180
125 146 159 168 176 174 174 175 179 184 175 174 176 175 173 173 173 171 177 183 191 198 205 218 223 219 223 233 247 241 217 213 222 181 186 197 200 201 196 199 205 183 190
63 125 139 147 160 168 173 174 168 169 173 171 168 166 171 176 175 181 186 191 200 203 213 220 220 218 225 241 230 211 203 198 188 197 213 209 202 197 188 191 197 189 199
22 119 143 155 163 171 166 160 165 167 165 162 165 167 172 176 181 182 188 197 201 208 213 213 204 207 208 178 175 181 185 192 196 203 202 188 190 186 184 192 199 196 195
2 172 165 162 167 167 165 164 167 161 160 162 166 168 173 176 180 183 189 198 201 201 198 190 189 184 163 155 148 144 155 171 190 202 192 185 177 182 189 195 200 200 205
123 167 167 164 167 165 169 169 160 163 163 165 168 170 170 174 180 185 190 192 192 188 185 182 179 168 167 171 168 163 168 180 201 206 194 191 188 189 194 201 203 201 202
138 165 172 161 158 156 154 154 161 166 169 168 170 173 177 182 186 189 190 187 183 182 181 178 173 175 175 176 172 168 184 207 215 200 195 194 194 200 203 204 197 199 201
250 159 156 135 144 154 153 154 161 161 165 170 174 180 180 179 176 176 177 176 178 176 173 180 176 183 181 174 176 177 185 211 247 192 183 187 191 200 205 204 207 196 193
186 169 150 142 155 157 156 161 160 163 166 170 170 163 165 160 161 170 170 171 172 175 181 180 182 184 183 187 186 187 185 190 236 181 182 187 195 195 186 190 194 198 198
179 179 178 160 158 164 164 165 167 165 157 154 155 152 149 151 169 175 167 169 175 181 187 187 186 188 187 199 192 182 179 181 192 184 187 191 189 191 185 193 191 196 195
164 167 160 158 162 167 165 165 165 163 160 156 154 153 147 139 160 166 172 185 191 194 195 195 190 189 190 189 187 177 170 179 186 185 194 202 200 198 198 202 205 209 209
157 159 161 163 164 161 161 157 158 163 161 160 160 160 156 161 168 175 181 188 193 201 199 186 185 184 187 179 177 178 180 185 174 170 192 204 204 205 207 202 203 197 191
169 158 158 157 156 156 154 155 159 160 161 162 164 164 158 176 184 188 182 182 186 185 178 171 172 177 176 178 178 181 186 193 195 197 185 192 201 199 200 203 198 196 202
158 153 153 149 150 149 153 159 160 162 163 162 164 165 166 174 160 156 152 157 163 164 166 166 163 169 185 192 196 192 194 197 203 210 214 212 204 209 203 205 211 210 221
144 144 143 141 148 156 159 158 159 162 161 160 160 157 161 155 151 147 149 150 154 160 165 170 172 181 187 191 197 209 200 208 216 223 237 218 217 217 224 227 228 213 224
143 144 143 148 150 155 156 158 160 161 162 159 160 160 158 156 151 146 143 137 151 143 147 154 168 169 172 180 187 196 201 215 220 220 219 211 205 212 215 219 222 226 229
145 147 146 146 146 150 153 157 158 158 159 160 160 156 159 159 153 149 144 146 142 149 146 148 147 149 156 164 168 179 184 202 218 222 217 230 224 217 210 210 219 233 240
150 149 142 134 138 149 155 155 157 159 162 160 156 154 156 157 156 154 153 159 151 144 150 146 145 147 148 157 163 159 138 148 216 115 128 143 185 198 204 214 214 218 222
Height
1385 1383 1383 1386 1388 1392 1393 1398 1400 1407 1413 1418 1425 1427 1432 1435 1440 1443 1448 1451 1455 1458 1460 1463 1465 1467 1465 1466 1467 1468 1471 1473 1475 1474 1475 1474 1475 1475 1476 1477 1479 1480 1482
1372 1372 1372 1374 1377 1379 1383 1388 1392 1397 1403 1410 1417 1420 1425 1429 1434 1438 1442 1447 1451 1454 1456 1460 1462 1463 1461 1463 1464 1466 1468 1470 1473 1473 1473 1472 1473 1473 1475 1476 1478 1480 1481
1362 1361 1360 1360 1363 1367 1373 1379 1383 1387 1395 1403 1410 1413 1418 1423 1428 1433 1439 1444 1447 1450 1452 1456 1458 1458 1458 1461 1461 1463 1465 1467 1468 1470 1471 1471 1471 1472 1473 1475 1477 1480 1481
1349 1346 1346 1346 1350 1357 1364 1368 1373 1380 1387 1396 1402 1407 1413 1419 1423 1428 1435 1440 1443 1446 1449 1452 1455 1454 1456 1458 1459 1461 1462 1464 1465 1467 1468 1468 1470 1471 1472 1474 1476 1479 1481
1334 1331 1330 1334 1340 1346 1352 1360 1366 1374 1382 1389 1396 1401 1408 1414 1417 1424 1432 1435 1439 1442 1446 1450 1451 1452 1454 1455 1457 1458 1460 1461 1462 1464 1464 1466 1467 1469 1470 1473 1476 1478 1480
1319 1317 1319 1323 1330 1335 1344 1352 1360 1369 1376 1383 1390 1396 1402 1407 1414 1422 1428 1430 1435 1439 1443 1447 1448 1449 1450 1452 1454 1456 1457 1459 1459 1460 1461 1462 1464 1466 1468 1471 1475 1477 1480
1305 1306 1308 1316 1322 1329 1338 1345 1354 1362 1369 1376 1385 1391 1397 1404 1413 1419 1423 1427 1432 1437 1441 1443 1445 1446 1447 1449 1451 1453 1454 1455 1455 1456 1457 1459 1460 1464 1466 1469 1472 1477 1478
1294 1291 1301 1309 1315 1321 1330 1339 1348 1356 1364 1373 1379 1387 1395 1404 1411 1417 1420 1425 1430 1435 1439 1441 1442 1443 1444 1447 1448 1450 1450 1451 1451 1451 1453 1455 1458 1463 1465 1468 1472 1474 1478
1279 1283 1293 1301 1306 1313 1323 1333 1344 1353 1363 1370 1377 1386 1394 1402 1410 1415 1418 1424 1429 1433 1435 1437 1439 1440 1442 1444 1445 1446 1446 1448 1448 1447 1451 1453 1458 1461 1464 1467 1470 1473 1477
1274 1281 1290 1297 1304 1311 1322 1332 1342 1352 1359 1368 1378 1387 1394 1401 1408 1412 1418 1423 1427 1429 1432 1434 1436 1438 1439 1441 1442 1443 1444 1445 1446 1446 1450 1453 1457 1460 1463 1466 1469 1473 1475
1277 1286 1293 1299 1308 1317 1324 1332 1340 1348 1358 1368 1378 1387 1394 1401 1407 1412 1417 1421 1423 1426 1429 1431 1433 1435 1436 1437 1438 1440 1441 1444 1445 1447 1449 1452 1454 1458 1461 1464 1468 1472 1475
1288 1291 1296 1303 1311 1318 1324 1332 1341 1349 1359 1369 1377 1385 1393 1401 1406 1410 1415 1418 1421 1423 1425 1427 1430 1432 1434 1435 1436 1437 1439 1442 1445 1447 1448 1450 1452 1455 1459 1463 1466 1469 1472
1299 1297 1301 1306 1311 1318 1325 1334 1342 1352 1361 1369 1378 1385 1393 1398 1403 1408 1412 1415 1418 1421 1423 1425 1428 1430 1433 1435 1437 1438 1440 1442 1444 1446 1448 1450 1453 1455 1458 1461 1465 1468 1470
1303 1302 1304 1307 1312 1319 1329 1337 1345 1354 1362 1370 1377 1385 1391 1396 1401 1405 1409 1412 1415 1418 1421 1423 1427 1430 1432 1434 1437 1438 1441 1442 1443 1445 1447 1449 1451 1454 1457 1460 1463 1466 1469
1307 1306 1305 1308 1314 1322 1332 1342 1351 1360 1365 1371 1379 1386 1390 1395 1399 1404 1407 1410 1414 1417 1419 1422 1425 1429 1431 1433 1436 1438 1441 1442 1442 1443 1446 1448 1450 1452 1455 1457 1461 1464 1466
1307 1307 1310 1315 1324 1329 1337 1345 1356 1364 1371 1377 1383 1387 1391 1395 1399 1403 1406 1410 1413 1416 1419 1422 1424 1427 1430 1433 1436 1438 1440 1442 1442 1442 1445 1447 1449 1451 1452 1454 1458 1460 1465
1309 1311 1315 1319 1328 1334 1341 1351 1357 1365 1372 1377 1382 1387 1391 1394 1399 1402 1405 1409 1412 1416 1419 1421 1424 1427 1429 1432 1435 1438 1440 1441 1443 1443 1445 1447 1448 1450 1451 1453 1456 1460 1462
1303 1310 1313 1318 1325 1338 1346 1353 1360 1365 1370 1375 1382 1387 1391 1395 1398 1401 1405 1408 1411 1415 1418 1420 1423 1426 1428 1432 1435 1438 1440 1442 1443 1444 1446 1447 1448 1450 1452 1454 1456 1459 1461
1304 1311 1316 1323 1332 1342 1349 1355 1361 1367 1372 1376 1381 1386 1391 1395 1399 1402 1405 1408 1412 1414 1416 1419 1421 1424 1427 1431 1434 1438 1440 1442 1443 1444 1446 1447 1448 1449 1451 1453 1454 1457 1459
1309 1313 1319 1327 1336 1344 1349 1356 1363 1368 1372 1377 1381 1386 1390 1395 1398 1401 1405 1409 1412 1413 1415 1417 1419 1422 1426 1430 1434 1437 1440 1442 1443 1444 1445 1446 1448 1449 1450 1452 1453 1454 1456
1312 1318 1324 1331 1338 1345 1352 1358 1363 1368 1373 1377 1383 1388 1392 1396 1398 1401 1403 1409 1410 1412 1414 1416 1419 1421 1426 1430 1433 1436 1439 1441 1443 1444 1445 1446 1447 1448 1449 1451 1453 1456 1456
1316 1322 1329 1335 1341 1347 1353 1358 1364 1368 1373 1379 1384 1389 1393 1396 1399 1402 1405 1407 1410 1411 1414 1416 1419 1423 1426 1429 1431 1436 1438 1440 1442 1443 1444 1445 1447 1447 1449 1451 1452 1454 1454
1319 1326 1332 1338 1343 1348 1355 1360 1365 1370 1376 1381 1386 1390 1394 1397 1400 1403 1406 1408 1410 1412 1414 1416 1420 1423 1426 1428 1431 1433 1437 1439 1440 1442 1442 1443 1444 1446 1447 1448 1449 1450 1453
1324 1330 1335 1340 1345 1350 1355 1361 1367 1373 1378 1383 1387 1391 1395 1399 1402 1404 1407 1407 1410 1413 1415 1418 1419 1422 1425 1428 1430 1433 1436 1437 1439 1440 1441 1442 1444 1445 1446 1446 1447 1449 1449
1327 1333 1339 1342 1346 1350 1356 1363 1369 1375 1380 1385 1388 1392 1396 1400 1403 1405 1408 1411 1413 1414 1417 1419 1422 1424 1425 1428 1431 1433 1435 1437 1439 1440 1440 1440 1442 1443 1444 1445 1446 1447 1448
1331 1335 1339 1344 1350 1354 1360 1366 1371 1377 1381 1385 1390 1393 1397 1401 1404 1407 1409 1412 1413 1416 1419 1421 1423 1424 1427 1429 1431 1432 1434 1436 1436 1437 1439 1439 1440 1441 1442 1443 1444 1444 1445